User: anonymous   Login
Location: Unspecified
(0.0000°N, 0.0000°E)
Time: 19:10:35
(UTC+00:00)
Language:

STARLINK-31143 - Orbit

View from above orbital plane
View from above orbital plane
View from above satellite
View from above satellite

Ground track
Ground track

The orbit is defined by the following mean orbital elements,

1 58770U          26145.38167801 +.00000000 +00000-0 +47812-4 0 00008
2 58770  53.1613  17.3456 0001295  84.8277 275.2871 15.30194864    00
Epoch (UTC): 25 May 2026 09:09:36
Eccentricity: 0.0001295
inclination: 53.1613°
perigee height: 474 km
apogee height: 476 km
right ascension of ascending node: 17.3456°
argument of perigee: 84.8277°
revolutions per day: 15.30194864
mean anomaly at epoch: 275.2871°

The dashed part of the orbit path shows where the satellite is in the earth's shadow,  

DLR